Location: Normandy Village
(37.8755°N, 122.2655°W)
Time: 09:23:31
(UTC+00:00)

Cosmos 2219 - Pass Details

Date: 22 September 2019
Orbit: 834 x 860 km, 71.1° (Epoch: 17 October)

Event Time Altitude Azimuth Distance (km) Brightness Sun altitude
Rises 13:28:01 0° 330° (NNW) 3,419 6.1 -6.5°
Reaches altitude 10° 13:30:34 10° 325° (NW) 2,475 5.3 -6.0°
Maximum altitude 13:35:55 44° 254° (WSW) 1,146 3.5 -4.9°
Drops below altitude 10° 13:41:13 10° 184° (S) 2,444 5.6 -3.9°
Sets 13:43:44 0° 178° (S) 3,372 6.3 -3.4°
